DW2363 Weather Reports


time (UTC)temp
F
wind
direction
speed
knots
gust
knots
rain 1hr
in
rain 24hr
in
rain mn
in
humidity
%
barometer
mb
20260510030726 70 78 2.6 4.3 0.00 0.00 0.00 68 1012.5
20260510030226 70 78 2.6 4.3 0.00 0.00 0.00 68 1012.4
20260510025729 70 78 2.6 4.3 0.00 0.00 0.00 68 1012.3
20260510025725 70 75 1.7 4.3 0.00 0.00 0.00 67 1012.3
20260510024724 70 48 1.7 3.5 0.00 0.00 0.00 67 1012.2
20260510024225 71 69 1.7 3.5 0.00 0.00 0.00 66 1012.2
20260510023724 71 69 1.7 3.5 0.00 0.00 0.00 66 1012.3
20260510023222 72 69 1.7 3.5 0.00 0.00 0.00 65 1012.2
20260510022720 72 5 1.7 2.6 0.00 0.00 0.00 65 1012.3
20260510022220 72 241 0.9 2.6 0.00 0.00 0.00 64 1012.2
20260510021724 73 229 0.0 0.9 0.00 0.00 0.00 64 1012.2
20260510021720 73 229 0.0 0.9 0.00 0.00 0.00 64 1012.3
20260510020724 73 229 0.0 3.5 0.00 0.00 0.00 64 1012.2
20260510020720 73 229 0.0 0.9 0.00 0.00 0.00 64 1012.2
20260510015725 73 225 0.9 3.5 0.00 0.00 0.00 63 1012.2
20260510015720 73 229 0.9 3.5 0.00 0.00 0.00 62 1012.2
20260510014720 73 261 0.9 3.5 0.00 0.00 0.00 63 1012.2
20260510014224 72 228 1.7 2.6 0.00 0.00 0.00 63 1012.2
20260510014220 73 228 0.9 2.6 0.00 0.00 0.00 62 1012.2
20260510013217 72 242 1.7 3.5 0.00 0.00 0.00 63 1012.2
20260510012719 72 227 2.6 4.3 0.00 0.00 0.00 63 1012.1
20260510012218 72 200 2.6 4.3 0.00 0.00 0.00 63 1012.1
20260510011718 72 223 2.6 4.3 0.00 0.00 0.00 63 1012.1
20260510011217 72 198 2.6 6.1 0.00 0.00 0.00 64 1012.1
20260510010722 73 214 2.6 6.1 0.00 0.00 0.00 64 1012.1
20260510010718 72 200 2.6 6.1 0.00 0.00 0.00 64 1012.1
20260510005718 72 204 2.6 6.1 0.00 0.00 0.00 64 1012.1
20260510005222 72 225 3.5 7.0 0.00 0.00 0.00 65 1012.1
20260510005217 72 212 3.5 7.0 0.00 0.00 0.00 65 1012.1
20260510004216 72 219 3.5 6.1 0.00 0.00 0.00 66 1012.1
20260510003716 71 205 4.3 7.0 0.00 0.00 0.00 65 1012.1
20260510003216 71 221 4.3 7.0 0.00 0.00 0.00 65 1012.1
20260510002716 71 237 4.3 6.1 0.00 0.00 0.00 66 1012.2
20260510002216 71 246 4.3 7.0 0.00 0.00 0.00 65 1012.1
20260510001716 71 229 4.3 7.0 0.00 0.00 0.00 66 1012.2
20260510001216 71 234 4.3 7.0 0.00 0.00 0.00 65 1012.1
20260510000716 71 236 4.3 6.1 0.00 0.00 0.00 64 1012.1
20260510000216 71 219 4.3 6.1 0.00 0.00 0.00 65 1012.1
20260509235716 72 246 4.3 7.0 0.00 0.00 0.00 64 1012.2
20260509235220 72 232 4.3 7.0 0.00 0.00 0.00 64 1012.2
20260509235216 71 244 4.3 7.0 0.00 0.00 0.00 64 1012.3
20260509234215 72 225 4.3 6.1 0.00 0.00 0.00 64 1012.3
20260509233716 73 212 3.5 6.1 0.00 0.00 0.00 62 1012.3
20260509233215 73 231 3.5 6.1 0.00 0.00 0.00 64 1012.3
20260509232715 73 246 3.5 6.1 0.00 0.00 0.00 63 1012.3
20260509232216 73 225 3.5 6.1 0.00 0.00 0.00 63 1012.3
20260509231719 73 216 3.5 6.1 0.00 0.00 0.00 62 1012.4
20260509231715 74 206 2.6 5.2 0.00 0.00 0.00 62 1012.3
20260509231325 74 217 1.7 4.3 0.00 0.00 0.00 63 1012.3
20260509230217 74 225 1.7 4.3 0.00 0.00 0.00 63 1012.3
20260509230213 74 223 1.7 4.3 0.00 0.00 0.00 63 1012.3
20260509225211 74 228 1.7 6.1 0.00 0.00 0.00 64 1012.4
20260509224711 73 240 2.6 6.1 0.00 0.00 0.00 65 1012.4
20260509224211 73 237 2.6 5.2 0.00 0.00 0.00 65 1012.5
20260509223711 74 240 2.6 5.2 0.00 0.00 0.00 63 1012.5
20260509223208 74 225 2.6 5.2 0.00 0.00 0.00 64 1012.6
20260509222713 74 186 1.7 5.2 0.00 0.00 0.00 63 1012.6
20260509222707 74 189 2.6 5.2 0.00 0.00 0.00 63 1012.6
20260509221706 74 194 1.7 4.3 0.00 0.00 0.00 64 1012.6
20260509221208 74 221 1.7 5.2 0.00 0.00 0.00 63 1012.7
20260509221204 74 205 1.7 5.2 0.00 0.00 0.00 63 1012.8
20260509220203 74 189 1.7 4.3 0.00 0.00 0.00 62 1012.9
20260509215704 74 155 1.7 5.2 0.00 0.00 0.00 64 1012.9
20260509215204 73 189 1.7 5.2 0.00 0.00 0.00 61 1012.9
20260509214704 73 192 1.7 4.3 0.00 0.00 0.00 61 1012.9
20260509214203 74 213 1.7 4.3 0.00 0.00 0.00 62 1013.0
20260509213703 75 177 1.7 4.3 0.00 0.00 0.00 63 1013.1
20260509213204 75 183 1.7 5.2 0.00 0.00 0.00 62 1013.1
20260509212710 75 226 1.7 4.3 0.00 0.00 0.00 63 1013.2
20260509212704 75 161 1.7 5.2 0.00 0.00 0.00 63 1013.1
20260509211704 74 188 1.7 4.3 0.00 0.00 0.00 63 1013.2
20260509211203 74 155 1.7 4.3 0.00 0.00 0.00 64 1013.4
20260509210703 74 168 1.7 4.3 0.00 0.00 0.00 63 1013.4
20260509210203 75 131 1.7 5.2 0.00 0.00 0.00 62 1013.4
20260509205704 75 184 0.9 5.2 0.00 0.00 0.00 63 1013.4
20260509205204 75 136 0.9 5.2 0.00 0.00 0.00 62 1013.5
20260509204704 75 164 1.7 6.1 0.00 0.00 0.00 64 1013.4
20260509204211 74 128 0.9 7.8 0.00 0.00 0.00 65 1013.5
20260509204204 74 115 0.9 6.1 0.00 0.00 0.00 66 1013.5
20260509203203 74 172 1.7 7.8 0.00 0.00 0.00 65 1013.4
20260509202704 74 191 1.7 8.7 0.00 0.00 0.00 65 1013.5
20260509202203 74 188 1.7 8.7 0.00 0.00 0.00 65 1013.5
20260509201704 74 215 0.9 5.2 0.00 0.00 0.00 66 1013.5
20260509201204 74 167 0.9 3.5 0.00 0.00 0.00 66 1013.6
20260509200706 73 130 0.9 3.5 0.00 0.00 0.00 66 1013.5
20260509200702 74 160 0.9 3.5 0.00 0.00 0.00 64 1013.5
20260509195701 73 239 0.9 6.1 0.00 0.00 0.00 63 1013.6
20260509195202 74 126 1.7 6.1 0.00 0.00 0.00 66 1013.6
20260509194701 73 218 1.7 6.1 0.00 0.00 0.00 66 1013.6
20260509194201 73 157 1.7 6.1 0.00 0.00 0.00 68 1013.6
20260509193702 73 169 1.7 5.2 0.00 0.00 0.00 67 1013.7
20260509193206 73 75 1.7 6.1 0.00 0.00 0.00 68 1013.7
20260509193202 73 153 0.9 5.2 0.00 0.00 0.00 68 1013.7
20260509192159 73 136 2.6 8.7 0.00 0.00 0.00 67 1013.7
20260509191659 74 105 2.6 8.7 0.00 0.00 0.00 67 1013.7
20260509191203 73 20 2.6 7.0 0.00 0.00 0.00 68 1013.8
20260509191159 73 30 2.6 5.2 0.00 0.00 0.00 67 1013.8
20260509190159 73 29 2.6 7.0 0.00 0.00 0.00 68 1013.9
20260509185705 72 34 2.6 7.8 0.00 0.00 0.00 69 1013.8
20260509185659 73 34 3.5 7.8 0.00 0.00 0.00 68 1013.8
20260509185159 72 64 3.5 7.8 0.00 0.00 0.00 68 1013.8
20260509184200 72 355 2.6 7.8 0.00 0.00 0.00 68 1014.0
20260509183658 71 74 2.6 7.0 0.00 0.00 0.00 69 1013.9
20260509183157 70 78 2.6 6.1 0.00 0.00 0.00 70 1014.0
20260509182656 70 47 2.6 7.0 0.00 0.00 0.00 70 1013.9
20260509182201 70 348 2.6 7.0 0.00 0.00 0.00 70 1014.0
20260509182157 71 12 2.6 7.0 0.00 0.00 0.00 70 1013.9
20260509181201 71 47 1.7 5.2 0.00 0.00 0.00 69 1014.0
20260509181157 71 21 1.7 5.2 0.00 0.00 0.00 70 1014.0
20260509180202 71 52 1.7 6.1 0.00 0.00 0.00 71 1014.1
20260509180157 71 40 1.7 4.3 0.00 0.00 0.00 71 1014.0
20260509175158 70 80 1.7 6.1 0.00 0.00 0.00 72 1014.0
20260509174701 69 68 2.6 5.2 0.00 0.00 0.00 73 1014.0
20260509174657 70 103 1.7 4.3 0.00 0.00 0.00 73 1014.0
20260509173655 68 24 3.5 5.2 0.00 0.00 0.00 73 1014.1
20260509173200 69 46 3.5 6.1 0.00 0.00 0.00 71 1013.9
20260509173155 68 20 3.5 6.1 0.00 0.00 0.00 73 1014.0
20260509172155 69 59 2.6 5.2 0.00 0.00 0.00 70 1013.9
20260509171656 68 59 2.6 5.2 0.00 0.00 0.00 70 1013.8
20260509171153 67 52 3.5 5.2 0.00 0.00 0.00 71 1013.8
20260509170654 68 43 3.5 5.2 0.00 0.00 0.00 71 1013.7
20260509170153 69 41 2.6 5.2 0.00 0.00 0.00 65 1013.7
20260509165653 69 28 1.7 5.2 0.00 0.00 0.00 62 1013.6
20260509165153 69 57 1.7 4.3 0.00 0.00 0.00 65 1013.6
20260509164652 69 34 1.7 4.3 0.00 0.00 0.00 64 1013.6
20260509164153 69 40 1.7 4.3 0.00 0.00 0.00 67 1013.6
20260509163653 69 16 1.7 4.3 0.00 0.00 0.00 66 1013.6
20260509163152 69 51 1.7 4.3 0.00 0.00 0.00 68 1013.6
20260509162652 69 51 2.6 4.3 0.00 0.00 0.00 69 1013.6
20260509162153 69 28 2.6 5.2 0.00 0.00 0.00 63 1013.6
20260509161653 70 55 2.6 5.2 0.00 0.00 0.00 65 1013.6
20260509161153 69 78 2.6 5.2 0.00 0.00 0.00 67 1013.7
20260509160653 69 77 1.7 5.2 0.00 0.00 0.00 66 1013.6
20260509160152 69 38 2.6 5.2 0.00 0.00 0.00 62 1013.7
20260509155655 69 34 2.6 5.2 0.00 0.00 0.00 62 1013.6
20260509155651 69 47 2.6 5.2 0.00 0.00 0.00 62 1013.6
20260509154648 69 55 2.6 5.2 0.00 0.00 0.00 64 1013.7
20260509154149 68 96 2.6 5.2 0.00 0.00 0.00 64 1013.7
20260509153649 69 96 2.6 6.1 0.00 0.00 0.00 65 1013.7
20260509153151 68 95 2.6 6.1 0.00 0.00 0.00 63 1013.6
20260509153147 68 102 1.7 4.3 0.00 0.00 0.00 66 1013.7
20260509152152 67 49 2.6 4.3 0.00 0.00 0.00 65 1013.6
20260509152147 67 55 2.6 4.3 0.00 0.00 0.00 62 1013.7
20260509151147 67 42 2.6 4.3 0.00 0.00 0.00 62 1013.5
20260509150647 67 19 2.6 4.3 0.00 0.00 0.00 63 1013.6
20260509150146 67 34 2.6 5.2 0.00 0.00 0.00 66 1013.6
20260509145647 66 39 3.5 5.2 0.00 0.00 0.00 65 1013.6
20260509145146 65 53 3.5 5.2 0.00 0.00 0.00 67 1013.6
20260509144646 65 32 3.5 7.8 0.00 0.00 0.00 67 1013.6
20260509144147 65 37 4.3 7.8 0.00 0.00 0.00 68 1013.6
20260509143647 65 32 5.2 7.8 0.00 0.00 0.00 68 1013.6
20260509143146 64 16 6.1 7.8 0.00 0.00 0.00 69 1013.6
20260509142647 65 11 5.2 7.8 0.00 0.00 0.00 68 1013.6
20260509142146 65 0 4.3 7.8 0.00 0.00 0.00 69 1013.5
20260509141646 65 19 5.2 7.8 0.00 0.00 0.00 68 1013.5
20260509141147 65 24 4.3 7.0 0.00 0.00 0.00 69 1013.4
20260509140647 65 26 4.3 7.0 0.00 0.00 0.00 69 1013.4
20260509140146 64 26 5.2 7.0 0.00 0.00 0.00 70 1013.4
20260509135646 64 36 5.2 7.8 0.00 0.00 0.00 69 1013.4
20260509135146 64 31 5.2 7.8 0.00 0.00 0.00 71 1013.4
20260509134646 64 24 5.2 8.7 0.00 0.00 0.00 70 1013.4
20260509134146 63 36 5.2 8.7 0.00 0.00 0.00 73 1013.4
20260509133646 63 28 6.1 9.6 0.00 0.00 0.00 73 1013.2
20260509133146 63 37 7.0 9.6 0.00 0.00 0.00 72 1013.4
20260509132644 63 49 7.8 9.6 0.00 0.00 0.00 74 1013.2
20260509132253 62 30 7.8 9.6 0.00 0.00 0.00 76 1013.0
20260509132149 62 40 8.7 10.4 0.00 0.00 0.00 76 1013.0
20260509132145 62 36 8.7 10.4 0.00 0.00 0.00 75 1013.1
20260509130645 62 32 7.0 9.6 0.00 0.00 0.00 75 1013.0
20260509130145 62 11 7.8 10.4 0.00 0.00 0.00 73 1013.0
20260509125644 63 17 7.8 10.4 0.00 0.00 0.00 72 1013.0
20260509125142 63 49 7.0 9.6 0.00 0.00 0.00 72 1012.9
20260509124642 62 61 6.1 10.4 0.00 0.00 0.00 73 1012.9
20260509124142 62 45 6.1 10.4 0.00 0.00 0.00 75 1012.9
20260509123647 62 58 7.8 10.4 0.00 0.00 0.00 75 1012.9
20260509123643 62 43 7.8 10.4 0.00 0.00 0.00 76 1012.9
20260509123249 62 59 8.7 11.3 0.00 0.00 0.00 78 1012.9
20260509122140 62 51 8.7 11.3 0.00 0.00 0.00 78 1012.8
20260509121639 62 81 9.6 10.4 0.00 0.00 0.00 78 1012.8
20260509121138 62 105 8.7 10.4 0.00 0.00 0.00 79 1012.7
20260509120638 61 99 8.7 10.4 0.00 0.00 0.00 81 1012.8
20260509120136 61 91 8.7 10.4 0.00 0.00 0.00 82 1012.8
20260509115636 61 96 8.7 10.4 0.00 0.00 0.00 82 1012.8
20260509115136 61 96 8.7 12.2 0.00 0.00 0.00 84 1012.9
20260509114636 61 101 8.7 12.2 0.00 0.00 0.00 84 1012.9
20260509114136 61 90 10.4 12.2 0.00 0.00 0.00 83 1012.9
20260509113636 61 93 10.4 12.2 0.00 0.00 0.00 82 1012.8
20260509113140 61 84 9.6 12.2 0.00 0.00 0.00 82 1012.9
20260509113136 61 82 9.6 12.2 0.00 0.00 0.00 82 1012.8
20260509112743 61 74 9.6 12.2 0.00 0.00 0.00 83 1012.8
20260509112241 60 92 8.7 11.3 0.00 0.00 0.00 84 1012.8
20260509111134 60 89 8.7 11.3 0.00 0.00 0.00 85 1012.8
20260509110634 60 71 8.7 11.3 0.00 0.00 0.00 85 1012.9
20260509110134 61 76 9.6 11.3 0.00 0.00 0.00 84 1012.9
20260509105634 61 101 9.6 11.3 0.00 0.00 0.00 83 1012.9
20260509105134 61 105 9.6 11.3 0.00 0.00 0.00 82 1012.9
20260509104634 61 103 9.6 11.3 0.00 0.00 0.00 83 1013.0
20260509104134 61 113 10.4 12.2 0.00 0.00 0.00 83 1012.9
20260509103634 61 101 10.4 12.2 0.00 0.00 0.00 83 1013.0
20260509103132 60 103 9.6 11.3 0.00 0.00 0.00 86 1013.0
20260509102632 60 108 9.6 11.3 0.00 0.00 0.00 86 1013.0
20260509102132 60 109 10.4 11.3 0.00 0.00 0.00 83 1013.0
20260509101632 61 106 9.6 11.3 0.00 0.00 0.00 82 1013.0
20260509101132 61 116 9.6 10.4 0.00 0.00 0.00 82 1013.0
20260509100632 61 115 8.7 10.4 0.00 0.00 0.00 82 1013.0
20260509100131 61 99 7.8 9.6 0.00 0.00 0.00 82 1013.1
20260509095631 60 113 7.8 8.7 0.00 0.00 0.00 82 1013.1
20260509095131 60 82 7.8 8.7 0.00 0.00 0.00 83 1013.2
20260509094631 60 83 7.8 8.7 0.00 0.00 0.00 83 1013.2
20260509094136 61 84 7.8 9.6 0.00 0.00 0.00 81 1013.4
20260509094132 61 87 7.8 8.7 0.00 0.00 0.00 82 1013.2
20260509093738 60 77 8.7 11.3 0.00 0.00 0.00 83 1013.4
20260509092631 60 93 9.6 11.3 0.00 0.00 0.00 83 1013.4
20260509092131 60 98 8.7 11.3 0.00 0.00 0.00 83 1013.4
20260509091631 61 105 8.7 10.4 0.00 0.00 0.00 82 1013.4
20260509091131 61 86 8.7 10.4 0.00 0.00 0.00 80 1013.4
20260509090628 62 82 8.7 10.4 0.00 0.00 0.00 75 1013.4
20260509090128 62 39 8.7 9.6 0.00 0.00 0.00 78 1013.5
20260509085626 62 82 8.7 10.4 0.00 0.00 0.00 76 1013.5
20260509085126 62 96 8.7 10.4 0.00 0.00 0.00 74 1013.5
20260509084626 61 87 7.8 9.6 0.00 0.00 0.00 77 1013.5
20260509084126 61 0 7.0 8.7 0.00 0.00 0.00 79 1013.6
20260509083625 62 348 7.0 8.7 0.00 0.00 0.00 77 1013.6
20260509083125 62 30 7.0 8.7 0.00 0.00 0.00 77 1013.7
20260509082625 61 24 7.0 8.7 0.00 0.00 0.00 78 1013.7
20260509082125 61 23 7.8 9.6 0.00 0.00 0.00 80 1013.7
20260509081626 61 26 7.8 9.6 0.00 0.00 0.00 80 1013.7
20260509081131 61 46 7.0 8.7 0.00 0.00 0.00 80 1013.7
20260509081125 61 37 7.8 9.6 0.00 0.00 0.00 80 1013.8
20260509080125 60 41 5.2 8.7 0.00 0.00 0.00 85 1013.8
20260509075628 60 54 4.3 7.8 0.00 0.00 0.00 86 1014.0
20260509075623 60 58 4.3 7.8 0.00 0.00 0.00 86 1013.9
20260509074623 60 44 5.2 9.6 0.00 0.00 0.00 84 1014.0
20260509074124 60 32 5.2 9.6 0.00 0.00 0.00 84 1014.1
20260509073623 59 35 5.2 8.7 0.00 0.00 0.00 86 1014.0
20260509073124 59 63 5.2 7.8 0.00 0.00 0.00 87 1014.1
20260509072732 59 48 7.0 9.6 0.00 0.00 0.00 86 1014.0
20260509072627 60 68 7.0 9.6 0.00 0.00 0.00 86 1014.0
20260509072623 60 22 6.1 9.6 0.00 0.00 0.00 86 1014.0
20260509071122 59 62 7.8 10.4 0.00 0.00 0.00 86 1014.0
20260509070621 59 49 7.8 10.4 0.00 0.00 0.00 86 1014.1
20260509070121 59 56 7.8 11.3 0.00 0.00 0.00 86 1014.1
20260509065621 59 62 7.8 11.3 0.00 0.00 0.00 86 1014.2
20260509065121 59 68 7.0 10.4 0.00 0.00 0.00 86 1014.3
20260509064621 59 92 7.8 10.4 0.00 0.00 0.00 86 1014.3
20260509064125 59 101 7.0 9.6 0.00 0.00 0.00 85 1014.3
20260509064121 59 91 7.0 9.6 0.00 0.00 0.00 86 1014.3
20260509063121 59 92 7.0 9.6 0.00 0.00 0.00 85 1014.2
20260509062621 60 102 6.1 9.6 0.00 0.00 0.00 85 1014.2
20260509062121 60 71 7.0 9.6 0.00 0.00 0.00 84 1014.2
20260509061619 60 92 7.0 10.4 0.00 0.00 0.00 83 1014.2
20260509061119 60 91 7.8 10.4 0.00 0.00 0.00 82 1014.3
20260509060619 60 90 8.7 10.4 0.00 0.00 0.00 81 1014.3
20260509060119 61 101 9.6 10.4 0.00 0.00 0.00 80 1014.2
20260509055619 61 91 8.7 10.4 0.00 0.00 0.00 78 1014.3
20260509055120 61 92 8.7 10.4 0.00 0.00 0.00 77 1014.3
20260509054623 63 101 9.6 11.3 0.00 0.00 0.00 75 1014.5
20260509054619 62 98 8.7 10.4 0.00 0.00 0.00 77 1014.4
20260509053619 63 89 10.4 11.3 0.00 0.00 0.00 74 1014.4
20260509053116 63 84 10.4 11.3 0.00 0.00 0.00 72 1014.4
20260509052614 64 83 10.4 12.2 0.00 0.00 0.00 72 1014.4
20260509052115 64 134 9.6 12.2 0.00 0.00 0.00 71 1014.4
20260509051615 63 134 8.7 11.3 0.00 0.00 0.00 73 1014.4
20260509051120 64 69 9.6 12.2 0.00 0.00 0.00 74 1014.4
20260509051116 63 51 8.7 11.3 0.00 0.00 0.00 74 1014.5
20260509050115 65 64 10.4 12.2 0.00 0.00 0.00 73 1014.4
20260509045619 65 78 10.4 13.0 0.00 0.00 0.00 74 1014.3
20260509045615 65 80 10.4 13.0 0.00 0.00 0.00 72 1014.3
20260509044615 65 71 10.4 13.0 0.00 0.00 0.00 74 1014.3
20260509044112 65 80 9.6 13.0 0.00 0.00 0.00 73 1014.2
20260509043612 65 65 9.6 12.2 0.00 0.00 0.00 71 1014.2
20260509043113 66 82 9.6 12.2 0.00 0.00 0.00 72 1014.2
20260509042612 66 80 10.4 12.2 0.00 0.00 0.00 70 1014.1
20260509042113 66 34 10.4 12.2 0.00 0.00 0.00 69 1014.1
20260509041613 66 49 10.4 12.2 0.00 0.00 0.00 69 1014.0
20260509041110 66 5 9.6 12.2 0.00 0.00 0.00 70 1014.0
20260509040611 65 37 9.6 11.3 0.00 0.00 0.00 72 1014.0
20260509040111 65 42 7.8 11.3 0.00 0.00 0.00 73 1013.9
20260509035611 65 33 6.1 7.8 0.00 0.00 0.00 78 1014.0
20260509035111 65 57 6.1 7.0 0.00 0.00 0.00 77 1014.0
20260509034611 65 57 6.1 7.8 0.00 0.00 0.00 75 1014.0
20260509034111 66 62 7.0 7.8 0.00 0.00 0.00 73 1013.9
20260509033611 66 62 6.1 7.8 0.00 0.00 0.00 72 1013.9
20260509033111 66 57 6.1 8.7 0.00 0.00 0.00 72 1013.9
20260509032611 67 64 7.0 8.7 0.00 0.00 0.00 71 1013.8
20260509032111 67 74 7.0 8.7 0.00 0.00 0.00 71 1013.8
20260509031611 67 89 7.8 8.7 0.00 0.00 0.00 73 1013.7
20260509031110 67 95 7.0 8.7 0.00 0.00 0.00 73 1013.7